When you browse on this site, cookies collect data to enhance your experience and personalize the content and advertising you see.
Visit our Privacy Policy to learn more. By continuing to use the site, you agree to this use of cookies and data.
  • In United Kingdom
  • List of Countries
  • For 7 days
  • Water Temperature
  • Satellite Maps
  • Weather Map
  • Weather Widgets
  • user-avatar
    Login

    Hourly Weather Qiryat Gat

    Today, 21 May, Tuesday

    Time Temperature Precipitation Wind Pressure Humidity
    00:00 +24°C° 0 mm 2 mps 750 mmHg 64%
    01:00 +23°C° 0 mm 1 mps 750 mmHg 65%
    02:00 +23°C° 0 mm 1 mps 750 mmHg 72%
    03:00 +23°C° 0 mm 1 mps 750 mmHg 70%
    04:00 +23°C° 0 mm 1 mps 750 mmHg 67%
    05:00 +23°C° 0 mm 1 mps 750 mmHg 65%
    06:00 +25°C° 0 mm 1 mps 750 mmHg 55%
    07:00 +27°C° 0 mm 1 mps 751 mmHg 45%
    08:00 +28°C° 0 mm 1 mps 751 mmHg 42%
    09:00 +30°C° 0 mm 2 mps 751 mmHg 37%
    10:00 +32°C° 0 mm 2 mps 751 mmHg 32%
    11:00 +35°C° 0 mm 3 mps 751 mmHg 27%
    12:00 +35°C° 0 mm 4 mps 751 mmHg 27%
    13:00 +35°C° 0 mm 5 mps 750 mmHg 28%
    14:00 +36°C° 0 mm 6 mps 750 mmHg 29%
    15:00 +35°C° 0 mm 6 mps 750 mmHg 30%
    16:00 +34°C° 0 mm 6 mps 750 mmHg 31%
    17:00 +33°C° 0 mm 6 mps 750 mmHg 33%
    18:00 +32°C° 0 mm 5 mps 750 mmHg 35%
    19:00 +30°C° 0 mm 4 mps 750 mmHg 36%
    20:00 +29°C° 0 mm 3 mps 750 mmHg 38%
    21:00 +28°C° 0 mm 2 mps 750 mmHg 37%
    22:00 +28°C° 0 mm 2 mps 750 mmHg 35%
    23:00 +28°C° 0 mm 1 mps 751 mmHg 34%

    Tomorrow, 22 May, Wednesday

    Time Temperature Precipitation Wind Pressure Humidity
    00:00 +28°C° 0 mm 2 mps 750 mmHg 33%
    01:00 +27°C° 0 mm 2 mps 750 mmHg 32%
    02:00 +27°C° 0 mm 2 mps 750 mmHg 31%
    03:00 +26°C° 0 mm 2 mps 750 mmHg 31%
    04:00 +26°C° 0 mm 1 mps 750 mmHg 31%
    05:00 +26°C° 0 mm 1 mps 750 mmHg 32%
    06:00 +28°C° 0 mm 1 mps 750 mmHg 27%
    07:00 +31°C° 0 mm 1 mps 750 mmHg 21%
    08:00 +31°C° 0 mm 0 mps 751 mmHg 16%
    09:00 +35°C° 0 mm 1 mps 751 mmHg 15%
    10:00 +37°C° 0 mm 1 mps 751 mmHg 13%
    11:00 +39°C° 0 mm 2 mps 750 mmHg 11%
    12:00 +40°C° 0 mm 3 mps 750 mmHg 11%
    13:00 +41°C° 0 mm 4 mps 750 mmHg 12%
    14:00 +41°C° 0 mm 5 mps 750 mmHg 12%
    15:00 +40°C° 0 mm 5 mps 750 mmHg 13%
    16:00 +39°C° 0 mm 5 mps 749 mmHg 15%
    17:00 +38°C° 0 mm 6 mps 749 mmHg 16%
    18:00 +36°C° 0 mm 5 mps 749 mmHg 18%
    19:00 +35°C° 0 mm 4 mps 749 mmHg 20%
    20:00 +33°C° 0 mm 3 mps 750 mmHg 22%
    21:00 +33°C° 0 mm 3 mps 750 mmHg 21%
    22:00 +33°C° 0 mm 3 mps 750 mmHg 20%
    23:00 +33°C° 0 mm 3 mps 750 mmHg 19%

    Day after tomorrow, 23 May, Thursday

    Time Temperature Precipitation Wind Pressure Humidity
    00:00 +33°C° 0 mm 3 mps 750 mmHg 18%
    01:00 +31°C° 0 mm 2 mps 749 mmHg 17%
    02:00 +31°C° 0 mm 2 mps 749 mmHg 15%
    03:00 +31°C° 0 mm 3 mps 749 mmHg 15%
    04:00 +31°C° 0 mm 3 mps 748 mmHg 15%
    05:00 +31°C° 0 mm 3 mps 748 mmHg 14%
    06:00 +34°C° 0 mm 3 mps 748 mmHg 13%
    07:00 +37°C° 0 mm 3 mps 749 mmHg 12%
    08:00 +39°C° 0 mm 3 mps 749 mmHg 10%
    09:00 +40°C° 0 mm 3 mps 749 mmHg 10%
    10:00 +43°C° 0 mm 3 mps 748 mmHg 9%
    11:00 +44°C° 0 mm 3 mps 748 mmHg 8%
    12:00 +44°C° 0 mm 3 mps 748 mmHg 8%
    13:00 +45°C° 0 mm 2 mps 747 mmHg 8%
    14:00 +45°C° 0 mm 2 mps 747 mmHg 8%
    15:00 +44°C° 0 mm 3 mps 746 mmHg 9%
    16:00 +44°C° 0 mm 3 mps 746 mmHg 10%
    17:00 +43°C° 0 mm 4 mps 745 mmHg 10%
    18:00 +42°C° 0 mm 4 mps 745 mmHg 11%
    19:00 +40°C° 0 mm 4 mps 746 mmHg 12%
    20:00 +38°C° 0 mm 3 mps 746 mmHg 13%
    21:00 +38°C° 0 mm 4 mps 746 mmHg 12%
    22:00 +38°C° 0 mm 4 mps 746 mmHg 11%
    23:00 +37°C° 0 mm 5 mps 746 mmHg 10%

    24 May, Friday

    Time Temperature Precipitation Wind Pressure Humidity
    00:00 +37°C° 0 mm 5 mps 745 mmHg 10%
    01:00 +38°C° 0 mm 6 mps 745 mmHg 10%
    02:00 +38°C° 0 mm 6 mps 745 mmHg 10%
    03:00 +38°C° 0 mm 6 mps 745 mmHg 10%
    04:00 +36°C° 0 mm 6 mps 745 mmHg 11%
    05:00 +36°C° 0 mm 6 mps 745 mmHg 11%
    06:00 +39°C° 0 mm 6 mps 745 mmHg 10%
    07:00 +41°C° 0 mm 6 mps 745 mmHg 9%
    08:00 +44°C° 0 mm 6 mps 745 mmHg 8%
    09:00 +45°C° 0 mm 6 mps 745 mmHg 8%
    10:00 +47°C° 0 mm 5 mps 745 mmHg 7%
    11:00 +48°C° 0 mm 5 mps 745 mmHg 6%
    12:00 +48°C° 0 mm 5 mps 745 mmHg 6%
    13:00 +49°C° 0 mm 5 mps 744 mmHg 6%
    14:00 +49°C° 0 mm 5 mps 744 mmHg 6%
    15:00 +48°C° 0 mm 4 mps 744 mmHg 7%
    16:00 +47°C° 0 mm 4 mps 743 mmHg 8%
    17:00 +45°C° 0 mm 4 mps 743 mmHg 9%
    18:00 +43°C° 0 mm 3 mps 744 mmHg 9%
    19:00 +42°C° 0 mm 3 mps 744 mmHg 9%
    20:00 +40°C° 0 mm 3 mps 744 mmHg 10%
    21:00 +39°C° 0 mm 3 mps 745 mmHg 10%
    22:00 +38°C° 0 mm 3 mps 745 mmHg 10%
    23:00 +38°C° 0 mm 3 mps 745 mmHg 10%

    25 May, Saturday

    Time Temperature Precipitation Wind Pressure Humidity
    00:00 +35°C° 0 mm 3 mps 745 mmHg 21%
    01:00 +31°C° 0 mm 3 mps 745 mmHg 32%
    02:00 +29°C° 0 mm 3 mps 745 mmHg 42%
    03:00 +28°C° 0 mm 3 mps 745 mmHg 50%
    04:00 +27°C° 0 mm 3 mps 746 mmHg 59%
    05:00 +25°C° 0 mm 2 mps 746 mmHg 67%
    06:00 +27°C° 0 mm 3 mps 747 mmHg 62%
    07:00 +28°C° 0 mm 3 mps 747 mmHg 57%
    08:00 +29°C° 0 mm 3 mps 748 mmHg 52%
    09:00 +30°C° 0 mm 3 mps 748 mmHg 49%
    10:00 +32°C° 0 mm 4 mps 748 mmHg 47%
    11:00 +33°C° 0 mm 4 mps 748 mmHg 44%
    12:00 +33°C° 0 mm 4 mps 748 mmHg 45%
    13:00 +32°C° 0 mm 5 mps 748 mmHg 46%
    14:00 +32°C° 0 mm 5 mps 747 mmHg 46%
    15:00 +32°C° 0 mm 5 mps 747 mmHg 48%
    16:00 +30°C° 0 mm 5 mps 747 mmHg 50%
    17:00 +29°C° 0 mm 5 mps 747 mmHg 53%
    18:00 +28°C° 0 mm 4 mps 747 mmHg 57%
    19:00 +27°C° 0 mm 4 mps 748 mmHg 61%
    20:00 +25°C° 0 mm 3 mps 748 mmHg 65%
    21:00 +25°C° 0 mm 3 mps 748 mmHg 62%
    22:00 +25°C° 0 mm 2 mps 748 mmHg 60%
    23:00 +26°C° 0 mm 1 mps 748 mmHg 57%

    26 May, Sunday

    Time Temperature Precipitation Wind Pressure Humidity
    00:00 +25°C° 0 mm 2 mps 748 mmHg 60%
    01:00 +24°C° 0 mm 2 mps 748 mmHg 63%
    02:00 +24°C° 0 mm 2 mps 748 mmHg 67%
    03:00 +23°C° 0.1 mm 2 mps 748 mmHg 68%
    04:00 +23°C° 0.1 mm 1 mps 748 mmHg 70%
    05:00 +23°C° 0.1 mm 1 mps 748 mmHg 72%
    06:00 +24°C° 0 mm 2 mps 749 mmHg 64%
    07:00 +25°C° 0 mm 2 mps 749 mmHg 56%
    08:00 +27°C° 0 mm 3 mps 749 mmHg 49%
    09:00 +28°C° 0 mm 3 mps 749 mmHg 43%
    10:00 +29°C° 0 mm 4 mps 748 mmHg 38%
    11:00 +32°C° 0 mm 4 mps 748 mmHg 33%
    12:00 +32°C° 0 mm 5 mps 748 mmHg 33%
    13:00 +32°C° 0 mm 5 mps 747 mmHg 32%
    14:00 +32°C° 0 mm 6 mps 747 mmHg 32%
    15:00 +32°C° 0 mm 6 mps 747 mmHg 33%
    16:00 +30°C° 0 mm 6 mps 747 mmHg 35%
    17:00 +29°C° 0 mm 5 mps 746 mmHg 37%
    18:00 +28°C° 0 mm 5 mps 747 mmHg 42%
    19:00 +27°C° 0 mm 4 mps 747 mmHg 48%
    20:00 +25°C° 0 mm 3 mps 747 mmHg 54%
    21:00 +25°C° 0 mm 3 mps 747 mmHg 56%
    22:00 +25°C° 0 mm 2 mps 747 mmHg 58%
    23:00 +24°C° 0 mm 2 mps 747 mmHg 60%
    Show more